Location: Asheville, NC
(35.6000°N, 82.5500°W)
Time: 05:41:10
(UTC-05:00)

Vanguard 2 Rocket - Pass Details

Date: 18 February 2018
Orbit: 555 x 3327 km, 32.9° (Epoch: 17 February)

Event Time Altitude Azimuth Distance (km) Brightness Sun altitude
Exits shadow 00:09:22 10° 81° (E) 6,253 11.0 -64.8°
Drops below altitude 10° 00:09:29 10° 81° (E) 6,277 11.0 -64.8°
Sets 00:14:31 0° 79° (E) 7,297 11.5 -65.1°
